This demonstration page uses our WeatherBlox Daily Observations layout. Learn more.

Left ArrowRight Arrow

41.86663, -103.66717

Hourly Observations for December 2, 2020

Temp ( °F °C ) Dew Point ( °F °C ) Humidity (%) Winds ( mph kmh ) Pressure ( in mb ) Visibility ( mi km ) Precip ( " mm )
12:53 am 00:53 Clear 20 -6.7 13 -10.6 74 74 WNW 10 17 30.43 1031 10 16 0.00 0.00
1:53 am 01:53 Clear 20 -6.7 13 -10.6 74 74 WNW 10 17 30.47 1032 10 16 0.00 0.00
2:53 am 02:53 Clear 20 -6.7 13 -10.6 74 74 WNW 10 17 30.48 1032 10 16 0.00 0.00
3:53 am 03:53 Clear 19 -7.2 12 -11.1 74 74 WNW 10 17 30.50 1033 10 16 0.00 0.00
4:53 am 04:53 Clear 19 -7.2 11 -11.7 71 71 NW 7 11 30.53 1034 10 16 0.00 0.00
5:53 am 05:53 Cloudy 20 -6.7 12 -11.1 71 71 WNW 12 19 30.54 1034 10 16 0.00 0.00
6:53 am 06:53 Cloudy 23 -5 14 -10 68 68 WNW 13 20 30.55 1035 10 16 0.00 0.00
7:53 am 07:53 Cloudy 24 -4.4 14 -10 65 65 WNW 13 20 30.58 1035 10 16 0.00 0.00
8:53 am 08:53 Cloudy 27 -2.8 15 -9.4 61 61 NNW 16 26 30.58 1036 10 16 0.00 0.00
9:53 am 09:53 Cloudy 28 -2.2 14 -10 56 56 NNW 20 31 30.61 1037 10 16 0.00 0.00
10:53 am 10:53 Cloudy 30 -1.1 14 -10 51 51 NW 16 26 30.60 1036 10 16 0.00 0.00
11:53 am 11:53 Cloudy 33 0.6 15 -9.4 47 47 NNW 15 24 30.58 1035 10 16 0.00 0.00
12:53 pm 12:53 Mostly Sunny 35 1.7 15 -9.4 44 44 NNW 13 20 30.55 1035 10 16 0.00 0.00
1:53 pm 13:53 Sunny 37 2.8 14 -10 39 39 NNW 14 22 30.53 1034 10 16 0.00 0.00
2:53 pm 14:53 Sunny 36 2.2 14 -10 40 40 NNW 15 24 30.52 1034 10 16 0.00 0.00
3:53 pm 15:53 Sunny 34 1.1 13 -10.6 42 42 NNW 12 19 30.54 1034 10 16 0.00 0.00
4:53 pm 16:53 Clear 28 -2.2 11 -11.7 49 49 N 6 9 30.57 1035 10 16 0.00 0.00
5:53 pm 17:53 Clear 22 -5.6 9 -12.8 57 57 NNW 6 9 30.58 1035 10 16 0.00 0.00
6:53 pm 18:53 Clear 21 -6.1 9 -12.8 59 59 Calm 30.56 1035 10 16 0.00 0.00
7:53 pm 19:53 Clear 21 -6.1 9 -12.8 59 59 WNW 5 7 30.55 1035 10 16 0.00 0.00
8:53 pm 20:53 Clear 16 -8.9 7 -13.9 67 67 NW 5 7 30.55 1035 10 16 0.00 0.00
9:53 pm 21:53 Clear 17 -8.3 8 -13.3 68 68 NW 9 15 30.54 1034 10 16 0.00 0.00
10:53 pm 22:53 Clear 16 -8.9 7 -13.9 67 67 NW 9 15 30.53 1034 10 16 0.00 0.00
11:53 pm 23:53 Clear 17 -8.3 8 -13.3 68 68 NNW 9 15 30.51 1033 10 16 0.00 0.00

Powered by AerisWeather